Content
SEND FEEDBACK

Daily
Averages
Monthly
Summary
United States of America

MENTMORE, NEW MEXICO


Home > North America > United States > New Mexico
Elevation: 6471 feet     Latitude: 35 31N     Longitude: 108 47W

WEATHER
 
SELECT A DAY
Number of Records: 182,264;   Date Range: 1/1/95 - 7/22/14
 
SHARE

PRINT THIS DATA

[ ← Previous Day ]
WEATHER ALMANAC - JANUARY 23, 2013
[ Next Day → ]
[ °C ]   °F
Weather ElementAverageHighLow
Temperature35.1 °F63 °F (2:53 pm)16 °F (3:53 am)
Dewpoint16.1 °F21 °F (9:53 pm)9 °F (3:53 am)
Humidity52 %74 % (1:53 am)14 % (2:53 pm)
Barometer30.41 in30.58 in (7:53 am)30.24 in (2:53 pm)
Wind Speed1.4 mph10.4 mph (4:53 am)
Weather ElementAverage
Visibility10 mi
Wind DirectionNE (47 °)

Weather ElementTotal
Precipitation---
Heating Degree Days25.5 (Base 65)
Averaged from 23 records on January 23, 2013
WEATHER CONDITIONS BREAKOUT
WIND DIRECTION BREAKOUT
WEATHER BY HOUR - JANUARY 23, 2013
[ °C ]   °F
Local TimeTemperatureDewpointHumidityBarometerVisibilityWind DirectionWind SpeedGust SpeedPrecipitationEventsConditions
1:53 AM19.9 °F12.9 °F74 %30.37 in10.0 miCalmClear
2:53 AM21.0 °F12.9 °F71 %30.35 in10.0 miCalmClear
3:53 AM16.0 °F9.0 °F74 %30.37 in10.0 miENE (60°)4.6 mphClear
4:53 AM19.9 °F10.9 °F68 %30.37 in10.0 miENE (60°)10.4 mphClear
5:53 AM18.0 °F10.0 °F71 %30.51 in10.0 miSSW (200°)3.5 mphClear
6:53 AM16.0 °F9.0 °F74 %30.56 in10.0 miCalmClear
7:53 AM18.0 °F10.0 °F71 %30.58 in10.0 miCalmClear
8:53 AM27.0 °F16.0 °F63 %30.56 in10.0 miCalmClear
9:53 AM35.1 °F18.0 °F50 %30.52 in10.0 miCalmClear
10:53 AM39.9 °F19.9 °F45 %30.49 in10.0 miCalmClear
11:53 AM48.9 °F19.9 °F32 %30.38 in10.0 miCalmClear
12:53 PM53.1 °F18.0 °F25 %30.35 in10.0 miWSW (240°)4.6 mphClear
1:53 PM57.9 °F18.0 °F21 %30.30 in10.0 miCalmClear
2:53 PM63.0 °F12.9 °F14 %30.24 in10.0 miWest (260°)3.5 mphClear
3:53 PM61.0 °F14.0 °F16 %30.28 in10.0 miWest (260°)4.6 mphClear
4:53 PM53.1 °F19.9 °F27 %30.31 in10.0 miCalmClear
5:53 PM39.9 °F19.9 °F45 %30.45 in10.0 miCalmClear
6:53 PM39.0 °F18.0 °F43 %30.46 in10.0 miCalmClear
7:53 PM35.1 °F19.9 °F54 %30.49 in10.0 miCalmClear
8:53 PM32.0 °F19.9 °F61 %30.45 in10.0 miCalmClear
9:53 PM33.1 °F21.0 °F61 %30.39 in10.0 miCalmClear
10:53 PM32.0 °F21.0 °F64 %30.38 in10.0 miCalmClear
11:53 PM28.0 °F19.9 °F72 %30.32 in10.0 miCalmClear
Hourly data recorded from KGUP, located miles away from Mentmore, New Mexico







STORIES FROM OUR PARTNERS